Mansfield, OH

1:06 PM EST on December 03, 2016 (GMT -0500)
Mansfield Lahm Regional

Weather History for KMFD - January, 2013

Change the Weather History Date:

Thursday, January 31, 2013

  Actual Average Record
Temperature  
Mean Temperature 24 °F 26 °F  
Max Temperature 33 °F 34 °F 61 °F (2002)
Min Temperature 15 °F 18 °F -5 °F (2009)
Degree Days  
Heating Degree Days 41 39  
Month to date heating degree days 1110 1225  
Since 1 July heating degree days 3312 3600  
Cooling Degree Days 0 0  
Month to date cooling degree days 0 0  
Year to date cooling degree days 0 0  
Moisture  
Dew Point 16 °F    
Average Humidity 78    
Maximum Humidity 89    
Minimum Humidity 67    
Precipitation  
Precipitation 0.06 in 0.08 in 1.00 in (1982)
Month to date precipitation 2.58 2.87  
Year to date precipitation 2.58 2.87  
Snow  
Snow 1.00 in 0.40 in - ()
Month to date snowfall 5.4 13.3  
Since 1 July snowfall 18.2 26.5  
Snow Depth 1.00 in    
Sea Level Pressure  
Sea Level Pressure 29.69 in    
Wind  
Wind Speed 17 mph (WSW)    
Max Wind Speed 32 mph    
Max Gust Speed 41 mph    
Visibility 5 miles    
Events Snow    
T = Trace of Precipitation, MM = Missing Value Source: NWS Daily Summary

Daily Weather History Graph

Daily Weather History Graph

Search for Another Location

Airport or City:

Trip Planner

Search our weather history database for the weather conditions in past years. The results will help you decide how hot, cold, wet, or windy it might be!

Date:

Astronomy

Jan. 31, 2013 Rise Set
Actual Time 7:41 AM EST 5:46 PM EST
Civil Twilight 7:11 AM EST 6:15 PM EST
Nautical Twilight 6:39 AM EST 6:48 PM EST
Astronomical Twilight 6:06 AM EST 7:20 PM EST
Moon 10:50 PM EST (1/31) 9:37 AM EST (1/31)
Length of Visible Light 11h 03m
Length of Day
10h 05m
Waning Gibbous, 80% of the Moon is Illuminated
Jan 31
Waning Gibbous
Feb 3
Last Quarter
Feb 10
New
Feb 17
First Quarter
Feb 25
Full

Hourly Weather History & Observations

Time (EST) Temp. Windchill Dew Point Humidity Pressure Visibility Wind Dir Wind Speed Gust Speed Precip Events Conditions
12:41 AM 32.0 °F 18.1 °F 26.6 °F 80% 29.36 in 10.0 mi West 27.6 mph 38.0 mph 0.00 in   Mostly Cloudy
12:52 AM 32.0 °F 18.4 °F 26.1 °F 79% 29.38 in 10.0 mi West 26.5 mph 36.8 mph 0.00 in   Overcast
1:45 AM 30.2 °F 17.1 °F 21.2 °F 69% 29.41 in 10.0 mi West 21.9 mph 38.0 mph N/A   Overcast
1:52 AM 30.0 °F 17.9 °F 21.9 °F 72% 29.43 in 10.0 mi West 18.4 mph 39.1 mph N/A   Overcast
2:52 AM 30.0 °F 18.3 °F 21.9 °F 72% 29.47 in 10.0 mi West 17.3 mph 27.6 mph N/A   Overcast
3:10 AM 28.4 °F 14.7 °F 24.8 °F 86% 29.46 in 2.5 mi West 21.9 mph 31.1 mph 0.00 in Snow Light Snow
3:15 AM 28.4 °F 16.2 °F 24.8 °F 86% 29.47 in 0.8 mi West 17.3 mph 32.2 mph 0.00 in Snow Light Snow
3:25 AM 28.4 °F 15.1 °F 24.8 °F 86% 29.47 in 2.0 mi WSW 20.7 mph 28.8 mph 0.00 in Snow Light Snow
3:32 AM 28.4 °F 15.8 °F 24.8 °F 86% 29.47 in 9.0 mi West 18.4 mph 34.5 mph 0.00 in   Overcast
3:41 AM 28.4 °F 13.8 °F 21.2 °F 74% 29.48 in 10.0 mi West 25.3 mph 41.4 mph 0.00 in   Overcast
3:52 AM 28.0 °F 15.3 °F 19.9 °F 72% 29.50 in 10.0 mi WSW 18.4 mph 40.3 mph 0.00 in   Overcast
4:16 AM 26.6 °F 13.4 °F 21.2 °F 80% 29.49 in 2.5 mi WSW 18.4 mph 35.7 mph 0.00 in Snow Light Snow
4:24 AM 26.6 °F 11.7 °F 23.0 °F 86% 29.50 in 1.5 mi WSW 24.2 mph 32.2 mph 0.00 in Snow Light Snow
4:28 AM 26.6 °F 12.4 °F 21.2 °F 80% 29.50 in 3.0 mi WSW 21.9 mph 33.4 mph 0.00 in Snow Light Snow
4:47 AM 26.6 °F 12.7 °F 21.2 °F 80% 29.51 in 1.8 mi WSW 20.7 mph 34.5 mph 0.00 in Snow Light Snow
4:52 AM 25.0 °F 10.9 °F 21.9 °F 88% 29.54 in 0.8 mi WSW 19.6 mph 31.1 mph 0.00 in Snow Light Snow
5:02 AM 24.8 °F 10.3 °F 21.2 °F 86% 29.52 in 1.2 mi WSW 20.7 mph 32.2 mph 0.00 in Snow Light Snow
5:13 AM 24.8 °F 8.7 °F 21.2 °F 86% 29.53 in 2.0 mi WSW 26.5 mph 40.3 mph 0.00 in Snow Light Snow
5:19 AM 24.8 °F 11.5 °F 19.4 °F 80% 29.54 in 3.0 mi WSW 17.3 mph 40.3 mph 0.00 in Snow Light Snow
5:52 AM 24.1 °F 8.0 °F 19.0 °F 81% 29.58 in 4.0 mi WSW 25.3 mph 33.4 mph 0.00 in Snow Light Snow
6:52 AM 23.0 °F 8.3 °F 16.0 °F 74% 29.62 in 5.0 mi WSW 19.6 mph 38.0 mph 0.00 in Snow Light Snow
7:07 AM 21.2 °F 6.8 °F 15.8 °F 80% 29.61 in 4.0 mi WSW 17.3 mph 27.6 mph 0.00 in Snow Light Snow
7:28 AM 21.2 °F 7.8 °F 15.8 °F 80% 29.62 in 5.0 mi WSW 15.0 mph 29.9 mph N/A Snow Light Snow
7:50 AM 21.2 °F 5.2 °F 12.2 °F 68% 29.63 in 9.0 mi West 21.9 mph 34.5 mph 0.00 in   Overcast
7:52 AM 21.9 °F 5.8 °F 12.0 °F 66% 29.66 in 9.0 mi West 23.0 mph 34.5 mph 0.00 in   Overcast
8:13 AM 21.2 °F 6.8 °F 15.8 °F 80% 29.64 in 1.8 mi WSW 17.3 mph 24.2 mph 0.00 in Snow Light Snow
8:24 AM 21.2 °F 7.8 °F 15.8 °F 80% 29.65 in 3.0 mi WSW 15.0 mph 27.6 mph 0.00 in Snow Light Snow
8:52 AM 21.9 °F 9.8 °F 15.1 °F 75% 29.69 in 7.0 mi WSW 12.7 mph 25.3 mph 0.00 in Snow Light Snow
9:06 AM 21.2 °F 7.8 °F 15.8 °F 80% 29.67 in 2.5 mi WSW 15.0 mph 23.0 mph 0.00 in Snow Light Snow
9:14 AM 21.2 °F 7.3 °F 15.8 °F 80% 29.67 in 1.0 mi WSW 16.1 mph 23.0 mph 0.00 in Snow Light Snow
9:24 AM 21.2 °F 10.1 °F 17.6 °F 86% 29.67 in 0.8 mi WSW 10.4 mph 21.9 mph 0.00 in Snow Light Snow
9:52 AM 19.9 °F 4.3 °F 14.0 °F 78% 29.73 in 2.0 mi WSW 19.6 mph 31.1 mph 0.00 in Snow Light Snow
10:02 AM 19.4 °F 2.5 °F 12.2 °F 74% 29.70 in 5.0 mi West 23.0 mph 39.1 mph 0.00 in Snow Light Snow
10:16 AM 19.4 °F 3.6 °F 10.4 °F 68% 29.71 in 10.0 mi West 19.6 mph 32.2 mph 0.00 in   Overcast
10:52 AM 19.9 °F 5.2 °F 10.0 °F 65% 29.77 in 10.0 mi WSW 17.3 mph 25.3 mph 0.00 in   Overcast
11:19 AM 19.4 °F 5.5 °F 12.2 °F 74% 29.73 in 1.5 mi WSW 15.0 mph 24.2 mph 0.00 in Snow Light Snow
11:22 AM 19.4 °F 6.0 °F 14.0 °F 80% 29.73 in 0.8 mi WSW 13.8 mph 24.2 mph 0.00 in Snow Light Snow
11:35 AM 19.4 °F 3.6 °F 12.2 °F 74% 29.74 in 2.5 mi WSW 19.6 mph 32.2 mph 0.00 in Snow Light Snow
11:42 AM 19.4 °F 5.0 °F 12.2 °F 74% 29.74 in 3.0 mi WSW 16.1 mph 32.2 mph 0.00 in Snow Light Snow
11:49 AM 19.4 °F 3.2 °F 12.2 °F 74% 29.74 in 1.8 mi WSW 20.7 mph 28.8 mph 0.00 in Snow Light Snow
11:52 AM 19.0 °F 3.2 °F 12.9 °F 77% 29.79 in 1.2 mi WSW 19.6 mph 28.8 mph 0.00 in Snow Light Snow
12:12 PM 19.4 °F 6.0 °F 15.8 °F 86% 29.74 in 0.8 mi West 13.8 mph 24.2 mph 0.00 in Snow Light Snow
12:23 PM 19.4 °F 2.8 °F 12.2 °F 74% 29.74 in 1.8 mi West 21.9 mph 31.1 mph 0.00 in Snow Light Snow
12:25 PM 19.4 °F 2.8 °F 12.2 °F 74% 29.74 in 3.0 mi West 21.9 mph 31.1 mph 0.00 in Snow Light Snow
12:44 PM 21.2 °F 5.6 °F 10.4 °F 63% 29.74 in 10.0 mi West 20.7 mph 36.8 mph 0.00 in   Overcast
12:52 PM 21.0 °F 5.7 °F 10.9 °F 65% 29.79 in 4.0 mi West 19.6 mph 40.3 mph 0.00 in Snow Light Snow
1:52 PM 21.9 °F 8.2 °F 14.0 °F 72% 29.79 in 6.0 mi WSW 16.1 mph 28.8 mph 0.00 in Snow Light Snow
2:30 PM 23.0 °F 8.0 °F 15.8 °F 74% 29.75 in 2.5 mi SW 20.7 mph 32.2 mph 0.00 in Snow Light Snow
2:40 PM 21.2 °F 7.3 °F 17.6 °F 86% 29.75 in 1.0 mi WSW 16.1 mph 26.5 mph 0.00 in Snow Light Snow
2:52 PM 23.0 °F 10.6 °F 18.0 °F 81% 29.79 in 1.2 mi WSW 13.8 mph 25.3 mph 0.00 in Snow Light Snow
2:56 PM 24.8 °F 12.9 °F 17.6 °F 74% 29.75 in 3.0 mi WSW 13.8 mph 21.9 mph 0.00 in Snow Light Snow
3:19 PM 24.8 °F 14.0 °F 17.6 °F 74% 29.75 in 2.0 mi WSW 11.5 mph 24.2 mph 0.00 in Snow Light Snow
3:27 PM 23.0 °F 8.7 °F 17.6 °F 80% 29.75 in 1.0 mi WSW 18.4 mph 28.8 mph 0.00 in Snow Light Snow
3:33 PM 23.0 °F 9.6 °F 17.6 °F 80% 29.75 in 4.0 mi WSW 16.1 mph 28.8 mph 0.00 in Snow Light Snow
3:42 PM 24.8 °F 11.9 °F 17.6 °F 74% 29.75 in 10.0 mi WSW 16.1 mph 26.5 mph 0.00 in   Mostly Cloudy
3:49 PM 24.8 °F 10.3 °F 17.6 °F 74% 29.76 in 9.0 mi WSW 20.7 mph 26.5 mph 0.00 in   Mostly Cloudy
3:52 PM 24.1 °F 9.8 °F 17.1 °F 75% 29.80 in 4.0 mi WSW 19.6 mph 26.5 mph 0.00 in Snow Light Snow
3:57 PM 24.8 °F 11.5 °F 17.6 °F 74% 29.75 in 2.5 mi WSW 17.3 mph 27.6 mph 0.00 in Snow Light Snow
4:03 PM 24.8 °F 10.7 °F 17.6 °F 74% 29.75 in 3.0 mi West 19.6 mph 27.6 mph 0.00 in Snow Light Snow
4:19 PM 24.8 °F 11.5 °F 14.0 °F 64% 29.75 in 10.0 mi WSW 17.3 mph 27.6 mph 0.00 in   Overcast
4:40 PM 23.0 °F 8.7 °F 17.6 °F 80% 29.76 in 0.8 mi WSW 18.4 mph 29.9 mph 0.00 in Snow Light Snow
4:48 PM 21.2 °F 8.9 °F 17.6 °F 86% 29.77 in 2.0 mi WSW 12.7 mph 28.8 mph 0.00 in Snow Light Snow
4:52 PM 23.0 °F 11.1 °F 17.1 °F 78% 29.82 in 8.0 mi WSW 12.7 mph 26.5 mph 0.00 in   Mostly Cloudy
5:11 PM 21.2 °F 10.1 °F 17.6 °F 86% 29.77 in 1.8 mi WSW 10.4 mph 27.6 mph N/A Snow Light Snow
5:19 PM 23.0 °F 10.1 °F 15.8 °F 74% 29.77 in 4.0 mi WSW 15.0 mph 23.0 mph 0.00 in Snow Light Snow
5:28 PM 23.0 °F 8.0 °F 15.8 °F 74% 29.77 in 7.0 mi WSW 20.7 mph 26.5 mph 0.00 in Snow Light Snow
5:40 PM 23.0 °F 11.1 °F 15.8 °F 74% 29.78 in 3.0 mi WSW 12.7 mph 27.6 mph 0.00 in Snow Light Snow
5:52 PM 21.9 °F 9.8 °F 15.1 °F 75% 29.83 in 8.0 mi WSW 12.7 mph 21.9 mph 0.00 in Snow Light Snow
6:52 PM 21.9 °F 7.8 °F 12.0 °F 66% 29.84 in 10.0 mi WSW 17.3 mph 26.5 mph 0.00 in Snow Light Snow
7:34 PM 21.2 °F 10.1 °F 12.2 °F 68% 29.81 in 10.0 mi West 10.4 mph 18.4 mph 0.00 in   Overcast
7:44 PM 21.2 °F 8.3 °F 12.2 °F 68% 29.82 in 7.0 mi West 13.8 mph 21.9 mph 0.00 in Snow Light Snow
7:52 PM 21.0 °F 9.3 °F 12.0 °F 68% 29.88 in 9.0 mi West 11.5 mph 21.9 mph 0.00 in   Overcast
8:52 PM 19.0 °F 5.6 °F 10.9 °F 71% 29.89 in 9.0 mi West 13.8 mph 21.9 mph 0.00 in   Overcast
9:33 PM 19.4 °F 5.0 °F 8.6 °F 63% 29.84 in 10.0 mi West 16.1 mph 23.0 mph N/A   Overcast
9:52 PM 18.0 °F 2.6 °F 10.0 °F 71% 29.91 in 10.0 mi West 17.3 mph 23.0 mph N/A   Overcast
10:23 PM 17.6 °F 5.7 °F 10.4 °F 73% 29.85 in 3.0 mi WNW 10.4 mph 19.6 mph 0.00 in Snow Light Snow
10:52 PM 16.0 °F 3.6 °F 8.1 °F 71% 29.91 in 9.0 mi West 10.4 mph 23.0 mph 0.00 in Snow Light Snow
11:52 PM 15.1 °F -0.6 °F 5.0 °F 64% 29.92 in 10.0 mi West 16.1 mph 23.0 mph 0.00 in   Overcast